GTI5523 KATL-KRDU

Flight info

Callsign GTI5523
Flight time N/A
Altitude 35000
Route GAIRY2 IRQ PYRES DMSTR2
Aircraft B77L/H-SDE1E2E3FGHIJ2J3J4J5M1RWXY/LB1D1

Departure

Time 2026-05-07 02:44
Airport Hartsfield Jackson Atlanta International Airport (KATL)

Arrival

Time N/A
Airport Raleigh-Durham International Airport (KRDU)
Time Latitude Longitude Altitude Speed Heading
2026-05-07 02:14 33.65415 -84.41499 1011 ft 0 kts 32°
2026-05-07 02:35 33.65396 -84.41516 1011 ft 4 kts 44°
2026-05-07 02:35 33.65379 -84.41540 1011 ft 4 kts 64°
2026-05-07 02:36 33.65372 -84.41570 1011 ft 4 kts 89°
2026-05-07 02:36 33.65376 -84.41602 1011 ft 4 kts 111°
2026-05-07 02:36 33.65385 -84.41625 1011 ft 0 kts 122°
2026-05-07 02:38 33.65385 -84.41624 1011 ft 1 kts 122°
2026-05-07 02:39 33.65349 -84.41556 1011 ft 16 kts 122°
2026-05-07 02:39 33.65288 -84.41438 1011 ft 11 kts 122°
2026-05-07 02:39 33.65241 -84.41368 1011 ft 11 kts 148°
2026-05-07 02:39 33.65217 -84.41360 1011 ft 0 kts 173°
2026-05-07 02:40 33.65211 -84.41360 1011 ft 6 kts 174°
2026-05-07 02:40 33.65141 -84.41344 1011 ft 11 kts 145°
2026-05-07 02:40 33.65119 -84.41239 1010 ft 18 kts 91°
2026-05-07 02:41 33.65119 -84.41091 1011 ft 18 kts 90°
2026-05-07 02:41 33.65073 -84.40969 1011 ft 18 kts 164°
2026-05-07 02:41 33.64950 -84.40963 1010 ft 18 kts 180°
2026-05-07 02:41 33.64845 -84.40911 1010 ft 18 kts 110°
2026-05-07 02:42 33.64845 -84.40764 1011 ft 18 kts 89°
2026-05-07 02:42 33.64841 -84.40620 1011 ft 16 kts 105°
2026-05-07 02:42 33.64748 -84.40568 1009 ft 15 kts 179°
2026-05-07 02:42 33.64679 -84.40630 1008 ft 14 kts 264°
2026-05-07 02:43 33.64679 -84.40673 1008 ft 4 kts 270°
2026-05-07 02:43 33.64680 -84.40814 1010 ft 35 kts 270°
2026-05-07 02:43 33.64677 -84.41500 1013 ft 129 kts 270°
2026-05-07 02:43 33.64685 -84.42939 1147 ft 204 kts 268°
2026-05-07 02:44 33.64694 -84.44116 1656 ft 221 kts 267°
2026-05-07 02:44 33.64720 -84.46039 2522 ft 235 kts 273°
2026-05-07 02:44 33.65268 -84.47955 3153 ft 253 kts 291°
2026-05-07 02:44 33.66093 -84.49852 3873 ft 258 kts 289°
2026-05-07 02:45 33.66860 -84.51802 4775 ft 258 kts 288°
2026-05-07 02:45 33.67605 -84.53749 5682 ft 256 kts 289°
2026-05-07 02:45 33.68373 -84.55675 6568 ft 255 kts 295°
2026-05-07 02:45 33.69647 -84.57252 7256 ft 277 kts 322°
2026-05-07 02:46 33.71493 -84.58100 8059 ft 292 kts 343°
2026-05-07 02:46 33.73559 -84.58251 8881 ft 302 kts 354°
2026-05-07 02:46 33.75682 -84.58201 9701 ft 306 kts 354°
2026-05-07 02:46 33.77823 -84.57916 10337 ft 320 kts 13°
2026-05-07 02:47 33.79841 -84.56552 10613 ft 354 kts 41°
2026-05-07 02:47 33.81273 -84.54073 10803 ft 382 kts 69°
2026-05-07 02:47 33.81768 -84.50828 11004 ft 402 kts 92°
2026-05-07 02:47 33.81585 -84.47470 11501 ft 413 kts 98°
2026-05-07 02:48 33.81332 -84.43943 12175 ft 423 kts 95°
2026-05-07 02:48 33.81240 -84.40386 12934 ft 428 kts 91°
2026-05-07 02:48 33.81250 -84.36788 13800 ft 431 kts 91°
2026-05-07 02:48 33.80989 -84.33248 14279 ft 433 kts 107°
2026-05-07 02:49 33.79785 -84.29951 14789 ft 430 kts 123°
2026-05-07 02:49 33.78305 -84.26768 15280 ft 440 kts 122°
2026-05-07 02:49 33.76839 -84.23507 15896 ft 446 kts 121°
2026-05-07 02:49 33.75380 -84.20186 16538 ft 452 kts 121°
2026-05-07 02:50 33.73918 -84.16812 17104 ft 458 kts 121°
2026-05-07 02:50 33.72440 -84.13382 17711 ft 465 kts 120°
2026-05-07 02:50 33.70944 -84.09902 18289 ft 471 kts 120°
2026-05-07 02:50 33.69431 -84.06385 18852 ft 476 kts 120°
2026-05-07 02:51 33.67903 -84.02836 19458 ft 479 kts 121°
2026-05-07 02:51 33.66367 -83.99272 20030 ft 483 kts 121°
2026-05-07 02:51 33.64814 -83.95675 20611 ft 487 kts 121°
2026-05-07 02:51 33.63246 -83.92049 21169 ft 491 kts 121°
2026-05-07 02:52 33.61689 -83.88453 21795 ft 492 kts 121°
2026-05-07 02:52 33.60088 -83.84758 22476 ft 493 kts 121°
2026-05-07 02:52 33.58516 -83.81134 22978 ft 498 kts 121°
2026-05-07 02:52 33.56906 -83.77429 23416 ft 503 kts 121°
2026-05-07 02:53 33.55277 -83.73681 23825 ft 508 kts 121°
2026-05-07 02:53 33.53638 -83.69913 24248 ft 511 kts 121°
2026-05-07 02:53 33.52109 -83.66068 24591 ft 515 kts 111°
2026-05-07 02:53 33.51360 -83.61852 25036 ft 521 kts 94°
2026-05-07 02:54 33.51612 -83.57525 25482 ft 519 kts 78°
2026-05-07 02:54 33.52330 -83.53236 25620 ft 530 kts 78°
2026-05-07 02:54 33.53028 -83.48850 25747 ft 541 kts 78°
2026-05-07 02:54 33.53695 -83.44389 26076 ft 545 kts 79°
2026-05-07 02:55 33.54332 -83.39906 26578 ft 546 kts 79°
2026-05-07 02:55 33.54952 -83.35406 27079 ft 548 kts 80°
2026-05-07 02:55 33.55567 -83.30881 27485 ft 551 kts 80°
2026-05-07 02:55 33.56183 -83.26317 27841 ft 556 kts 80°
2026-05-07 02:56 33.56805 -83.21715 28188 ft 560 kts 80°
2026-05-07 02:56 33.57423 -83.17145 28547 ft 563 kts 79°
2026-05-07 02:56 33.58052 -83.12501 28942 ft 565 kts 79°
2026-05-07 02:56 33.58680 -83.07848 29397 ft 565 kts 79°
2026-05-07 02:57 33.59309 -83.03190 29919 ft 565 kts 79°
2026-05-07 02:57 33.59933 -82.98547 30403 ft 563 kts 79°
2026-05-07 02:57 33.60554 -82.93917 30901 ft 561 kts 79°
2026-05-07 02:57 33.61172 -82.89289 31378 ft 559 kts 79°
2026-05-07 02:58 33.61786 -82.84688 31849 ft 558 kts 79°
2026-05-07 02:58 33.62395 -82.80098 32313 ft 556 kts 79°
2026-05-07 02:58 33.63003 -82.75513 32738 ft 556 kts 80°
2026-05-07 02:58 33.63608 -82.70932 33111 ft 556 kts 80°
2026-05-07 02:59 33.64211 -82.66356 33507 ft 556 kts 80°
2026-05-07 02:59 33.64813 -82.61768 33927 ft 555 kts 80°
2026-05-07 02:59 33.65412 -82.57197 34287 ft 554 kts 80°
2026-05-07 02:59 33.66000 -82.52689 34567 ft 554 kts 80°
2026-05-07 03:00 33.66596 -82.48110 34749 ft 555 kts 80°
2026-05-07 03:00 33.67193 -82.43517 34877 ft 559 kts 80°
2026-05-07 03:00 33.68395 -82.34220 34948 ft 568 kts 80°
2026-05-07 03:01 33.69607 -82.24770 34968 ft 576 kts 80°
2026-05-07 03:01 33.70852 -82.15228 35002 ft 580 kts 77°
2026-05-07 03:02 33.72967 -82.05895 34976 ft 578 kts 69°
2026-05-07 03:02 33.75548 -81.96725 34945 ft 579 kts 69°
2026-05-07 03:03 33.78003 -81.87475 34946 ft 580 kts 70°
2026-05-07 03:03 33.80321 -81.78186 34939 ft 580 kts 71°
2026-05-07 03:04 33.82612 -81.68942 34939 ft 579 kts 71°
2026-05-07 03:04 33.84929 -81.59657 34929 ft 578 kts 71°
2026-05-07 03:05 33.87654 -81.50762 34937 ft 570 kts 57°
2026-05-07 03:05 33.91810 -81.42627 35029 ft 566 kts 52°
2026-05-07 03:06 33.96066 -81.34690 35009 ft 570 kts 52°
2026-05-07 03:06 34.00235 -81.26518 34995 ft 574 kts 54°
2026-05-07 03:07 34.04324 -81.18237 35035 ft 576 kts 54°
2026-05-07 03:07 34.08427 -81.09918 35032 ft 577 kts 54°
2026-05-07 03:08 34.12542 -81.01610 35026 ft 576 kts 54°
2026-05-07 03:08 34.16666 -80.93289 35023 ft 576 kts 53°
2026-05-07 03:09 34.18713 -80.89148 34830 ft 571 kts 53°
2026-05-07 03:09 34.20757 -80.85011 33988 ft 576 kts 54°
2026-05-07 03:09 34.22808 -80.80856 33150 ft 575 kts 54°
2026-05-07 03:09 34.24856 -80.76700 32281 ft 575 kts 55°
2026-05-07 03:10 34.26896 -80.72553 31588 ft 571 kts 55°
2026-05-07 03:10 34.28880 -80.68509 31086 ft 563 kts 56°
2026-05-07 03:10 34.30889 -80.64409 30585 ft 555 kts 56°
2026-05-07 03:10 34.32842 -80.60421 30149 ft 549 kts 56°
2026-05-07 03:11 34.34754 -80.56515 29593 ft 543 kts 56°
2026-05-07 03:11 34.36665 -80.52607 29017 ft 536 kts 56°
2026-05-07 03:11 34.38553 -80.48745 28556 ft 530 kts 56°
2026-05-07 03:11 34.40415 -80.44930 28044 ft 524 kts 56°
2026-05-07 03:12 34.42259 -80.41148 27552 ft 519 kts 56°
2026-05-07 03:12 34.44083 -80.37404 27070 ft 513 kts 56°
2026-05-07 03:12 34.45888 -80.33696 26561 ft 508 kts 56°
2026-05-07 03:12 34.47670 -80.30029 26097 ft 503 kts 56°
2026-05-07 03:13 34.49442 -80.26381 25639 ft 499 kts 56°
2026-05-07 03:13 34.51191 -80.22775 25181 ft 495 kts 56°
2026-05-07 03:13 34.52928 -80.19191 24722 ft 491 kts 56°
2026-05-07 03:13 34.54651 -80.15631 24249 ft 488 kts 56°
2026-05-07 03:14 34.56362 -80.12092 23795 ft 484 kts 56°
2026-05-07 03:14 34.58061 -80.08576 23297 ft 481 kts 56°
2026-05-07 03:14 34.61420 -80.01612 22328 ft 473 kts 56°
2026-05-07 03:15 34.63074 -79.98176 21876 ft 469 kts 56°
2026-05-07 03:15 34.64710 -79.94777 21431 ft 465 kts 56°
2026-05-07 03:15 34.66327 -79.91413 21183 ft 456 kts 56°
2026-05-07 03:15 34.67935 -79.88150 20999 ft 441 kts 51°
2026-05-07 03:16 34.69936 -79.85458 20743 ft 418 kts 30°
2026-05-07 03:16 34.72275 -79.83519 20523 ft 403 kts 27°
2026-05-07 03:16 34.74550 -79.81612 20290 ft 402 kts 28°
2026-05-07 03:16 34.76841 -79.79635 20078 ft 404 kts 29°
2026-05-07 03:17 34.79131 -79.77629 19835 ft 406 kts 30°
2026-05-07 03:17 34.81414 -79.75615 19585 ft 404 kts 30°
2026-05-07 03:17 34.83680 -79.73609 19349 ft 402 kts 29°
2026-05-07 03:17 34.85940 -79.71606 19099 ft 401 kts 29°
2026-05-07 03:18 34.88191 -79.69611 18847 ft 399 kts 28°
2026-05-07 03:18 34.90432 -79.67625 18571 ft 397 kts 28°
2026-05-07 03:18 34.92665 -79.65645 18344 ft 395 kts 28°
2026-05-07 03:18 34.94882 -79.63678 18077 ft 394 kts 28°
2026-05-07 03:19 34.97095 -79.61715 17813 ft 392 kts 29°
2026-05-07 03:19 34.99294 -79.59762 17584 ft 390 kts 29°
2026-05-07 03:19 35.01476 -79.57822 17344 ft 387 kts 29°
2026-05-07 03:19 35.03624 -79.55912 17115 ft 386 kts 29°
2026-05-07 03:20 35.05790 -79.53986 16900 ft 386 kts 29°
2026-05-07 03:20 35.07966 -79.52051 16658 ft 389 kts 29°
2026-05-07 03:20 35.10223 -79.50279 16410 ft 383 kts 19°
2026-05-07 03:20 35.12667 -79.49089 16191 ft 375 kts
2026-05-07 03:21 35.15185 -79.48422 15958 ft 366 kts 359°
2026-05-07 03:21 35.17711 -79.48104 15790 ft 365 kts 358°
2026-05-07 03:21 35.20237 -79.47799 15572 ft 365 kts 358°
2026-05-07 03:21 35.22756 -79.47485 15354 ft 364 kts 359°
2026-05-07 03:22 35.25282 -79.47158 15133 ft 364 kts 359°
2026-05-07 03:22 35.27803 -79.46823 14908 ft 363 kts 359°
2026-05-07 03:22 35.30310 -79.46485 14711 ft 363 kts 360°
2026-05-07 03:22 35.32821 -79.46115 14465 ft 363 kts
2026-05-07 03:23 35.35265 -79.45213 14226 ft 372 kts 19°
2026-05-07 03:23 35.37530 -79.43630 14020 ft 379 kts 33°
2026-05-07 03:23 35.39588 -79.41594 13767 ft 380 kts 36°
2026-05-07 03:23 35.41614 -79.39505 13504 ft 381 kts 37°
2026-05-07 03:24 35.43639 -79.37413 13267 ft 380 kts 37°
2026-05-07 03:24 35.45641 -79.35357 13029 ft 379 kts 36°
2026-05-07 03:24 35.47665 -79.33293 12776 ft 378 kts 36°
2026-05-07 03:24 35.49684 -79.31243 12549 ft 376 kts 36°
2026-05-07 03:25 35.51697 -79.29206 12320 ft 374 kts 36°
2026-05-07 03:25 35.53696 -79.27184 12094 ft 372 kts 36°
2026-05-07 03:25 35.55690 -79.25167 11887 ft 370 kts 36°
2026-05-07 03:25 35.57667 -79.23167 11654 ft 368 kts 36°
2026-05-07 03:26 35.59641 -79.21169 11427 ft 366 kts 36°
2026-05-07 03:26 35.61597 -79.19187 11212 ft 364 kts 36°
2026-05-07 03:26 35.63505 -79.17182 10985 ft 356 kts 42°
2026-05-07 03:26 35.65104 -79.14872 10698 ft 353 kts 51°
2026-05-07 03:27 35.66514 -79.12434 10432 ft 348 kts 53°
2026-05-07 03:27 35.67874 -79.10005 10165 ft 342 kts 53°
2026-05-07 03:27 35.69223 -79.07631 9942 ft 334 kts 52°
2026-05-07 03:27 35.70555 -79.05333 9659 ft 328 kts 51°
2026-05-07 03:28 35.71882 -79.03078 9365 ft 322 kts 51°
2026-05-07 03:28 35.72753 -79.01607 9195 ft 318 kts 51°
2026-05-07 03:28 35.74046 -78.99432 8936 ft 311 kts 51°
2026-05-07 03:28 35.75320 -78.97295 8684 ft 308 kts 50°
2026-05-07 03:29 35.76585 -78.95174 8455 ft 307 kts 51°
2026-05-07 03:29 35.78264 -78.92387 8126 ft 303 kts 46°
2026-05-07 03:29 35.79281 -78.91203 7953 ft 295 kts 27°
2026-05-07 03:29 35.81112 -78.90259 7785 ft 281 kts
2026-05-07 03:30 35.83037 -78.89690 7618 ft 288 kts
2026-05-07 03:30 35.84999 -78.89088 7411 ft 291 kts
2026-05-07 03:30 35.86951 -78.88479 7239 ft 286 kts
2026-05-07 03:30 35.88852 -78.87878 7014 ft 278 kts
2026-05-07 03:31 35.90698 -78.87297 6806 ft 270 kts
2026-05-07 03:31 35.92487 -78.86732 6583 ft 261 kts
2026-05-07 03:31 35.94214 -78.86113 6358 ft 259 kts 19°
2026-05-07 03:31 35.95650 -78.84717 6178 ft 269 kts 43°
2026-05-07 03:32 35.96931 -78.83032 5890 ft 272 kts 44°
2026-05-07 03:32 35.97903 -78.80985 5204 ft 282 kts 77°
2026-05-07 03:32 35.97884 -78.78625 4508 ft 280 kts 109°
2026-05-07 03:32 35.97063 -78.76462 3749 ft 279 kts 136°
2026-05-07 03:33 35.95600 -78.75070 3307 ft 252 kts 163°
2026-05-07 03:33 35.93976 -78.74634 2643 ft 230 kts 186°
2026-05-07 03:33 35.92458 -78.74922 1812 ft 218 kts 197°